Wind_Speed
13 13 13 14 14 14 14 14 14 13 13 13 13 14 14 14 14 14 13 13 13 12 12 11 11 10 10 10 9 9 8 8 7 6 6 6 6 5 5 4 4 4 4
14 14 14 15 15 15 15 15 15 14 14 15 14 15 15 15 15 15 15 14 14 14 13 13 12 11 11 11 11 10 10 9 9 8 8 7 7 7 6 6 5 5 5
15 15 15 15 15 16 16 16 16 16 16 16 16 15 16 16 16 16 16 16 15 15 15 14 14 13 13 12 12 11 11 11 10 10 9 9 8 8 8 7 7 7 6
16 16 16 17 17 17 17 17 17 17 17 17 17 17 17 17 16 17 17 17 16 16 16 15 15 15 14 14 13 13 12 12 12 11 11 10 10 10 9 9 8 8 8
16 17 17 18 18 18 18 18 18 18 18 18 18 18 18 17 17 17 17 17 18 17 17 16 16 16 16 16 15 14 14 13 13 12 12 12 11 11 11 10 10 9 9
17 17 18 18 18 18 19 19 20 20 20 19 19 19 19 19 19 18 18 18 19 18 18 18 17 17 17 17 17 16 15 15 14 13 13 13 13 12 12 11 11 11 10
18 18 19 19 20 20 20 20 21 22 22 21 21 21 21 20 20 20 20 19 19 20 20 19 19 18 18 18 18 18 18 17 16 15 15 15 14 14 13 13 13 13 12
19 19 20 21 21 21 21 21 22 23 23 23 23 22 22 22 22 22 21 21 20 20 20 20 20 20 19 19 19 19 19 18 18 17 17 16 15 15 15 14 13 13 13
21 21 21 22 22 23 23 23 24 24 24 24 24 24 24 24 23 23 23 23 22 22 21 21 21 21 21 20 20 21 20 19 19 18 18 17 16 16 16 15 15 14 14
23 23 23 23 24 24 25 25 25 25 25 26 26 26 26 26 25 25 25 25 24 24 23 23 22 21 22 22 21 21 21 21 20 19 19 19 18 18 17 17 16 16 15
24 24 24 24 25 26 26 26 27 27 27 27 28 28 28 28 28 27 27 27 26 26 25 25 24 23 23 23 23 22 22 22 22 21 20 20 19 19 19 18 18 17 16
25 26 26 26 27 27 28 28 29 29 29 29 30 30 30 30 30 30 29 29 28 28 27 26 26 25 24 24 24 23 23 23 22 22 22 21 21 21 20 20 19 19 18
27 27 27 28 28 28 29 29 30 30 30 31 31 32 32 32 32 32 31 31 30 30 29 28 28 27 27 26 26 25 25 24 23 23 23 23 23 22 22 21 21 20 20
29 29 30 30 30 31 31 31 31 31 32 32 33 33 34 34 34 34 34 33 32 32 31 30 30 29 29 28 28 27 26 26 25 24 24 24 24 24 23 23 22 22 21
31 32 32 33 33 33 34 34 34 33 34 34 34 35 35 35 35 35 35 35 35 34 33 32 32 31 31 30 30 29 28 27 26 26 26 25 25 25 25 24 24 23 23
33 34 35 35 35 36 36 36 36 36 36 36 35 35 36 35 36 36 37 37 37 36 35 35 34 33 33 33 31 31 30 29 28 27 27 27 27 26 26 26 25 25 24
35 36 37 37 38 38 39 39 39 38 38 37 37 37 37 37 37 38 38 38 38 38 38 37 36 35 35 35 34 32 32 31 30 29 29 28 28 28 28 27 27 26 26
37 38 38 39 40 40 41 41 41 40 40 39 39 39 39 39 39 39 40 40 40 40 40 39 39 37 37 37 36 35 33 33 32 31 31 30 30 29 29 29 28 28 28
39 39 40 41 42 42 42 43 43 42 41 41 42 41 40 40 40 40 41 41 41 41 42 41 41 40 39 39 38 37 37 36 35 34 33 32 32 31 30 30 30 30 30
41 41 42 42 43 43 43 43 43 43 43 43 43 43 43 42 41 42 43 43 43 43 43 43 43 42 41 41 40 40 39 39 38 37 36 35 34 33 32 32 32 31 31
41 42 43 44 44 44 44 44 44 44 43 43 43 44 44 43 43 42 43 43 44 44 45 45 45 45 44 44 43 42 42 41 41 39 38 37 37 36 34 34 34 33 33
42 43 44 44 45 45 45 45 45 45 44 44 43 43 44 45 45 44 44 44 44 45 46 46 46 46 46 46 46 45 44 43 43 42 41 40 39 38 36 36 36 35 34
42 43 44 45 45 45 45 45 45 45 46 45 45 45 44 45 46 46 45 45 46 46 47 47 47 47 47 47 47 46 46 45 44 43 43 42 41 40 39 38 37 37 36
42 43 44 45 45 45 45 45 45 46 46 46 46 45 45 46 46 47 46 45 46 47 47 48 48 48 48 48 47 47 47 47 46 46 45 43 43 42 41 39 39 39 39
43 43 44 45 45 46 46 46 46 46 46 46 46 46 46 46 47 47 47 47 47 47 48 49 49 49 49 49 48 47 48 48 48 48 46 46 45 44 43 42 41 41 40
44 44 44 45 45 46 46 46 46 46 47 47 47 46 46 47 47 48 49 49 49 48 48 49 50 49 50 50 49 48 48 48 48 48 48 47 47 46 45 44 43 43 42
Wind_Direction
277 277 276 274 273 271 271 270 267 264 262 260 258 256 253 251 248 246 246 246 244 242 241 241 239 238 239 238 236 235 235 236 234 233 229 225 224 226 223 217 214 218 221
278 277 276 275 274 273 272 271 268 265 263 260 259 257 255 253 252 251 249 248 247 245 243 242 241 240 240 239 239 240 240 241 240 238 237 234 230 230 230 227 226 229 231
278 278 277 275 274 273 273 272 269 266 264 262 260 258 256 254 254 253 251 248 248 248 246 244 242 241 241 241 240 240 240 240 241 240 240 237 235 233 234 235 235 236 238
278 278 277 276 275 274 273 272 270 268 266 263 261 258 257 255 253 252 251 249 248 248 247 245 244 242 241 241 242 242 242 242 242 241 240 240 240 239 240 240 239 240 240
280 280 278 278 276 275 274 273 270 268 267 265 262 259 257 256 253 252 252 250 250 250 248 246 246 245 243 243 243 243 243 243 243 242 241 241 243 242 241 241 241 241 241
281 280 277 276 275 276 276 274 271 269 266 264 263 261 259 257 255 253 253 253 251 251 251 249 248 246 245 244 244 245 245 243 242 241 242 243 245 245 244 244 245 243 243
280 278 277 276 275 275 275 274 272 270 268 266 263 261 259 257 257 256 255 254 251 250 251 250 248 248 247 246 245 245 245 243 243 243 244 245 246 246 245 245 245 246 246
280 279 277 277 276 276 275 273 272 270 269 267 264 262 259 258 256 256 257 256 254 252 251 251 249 248 247 247 246 245 244 243 243 244 244 246 246 246 245 244 245 246 246
280 281 279 277 276 275 275 274 272 270 268 266 265 262 259 258 257 256 256 256 255 253 252 252 251 249 247 247 248 246 244 244 244 244 245 245 246 245 245 244 245 247 247
278 279 279 277 276 276 276 274 272 270 268 266 264 263 260 257 256 256 255 255 254 252 252 252 251 249 247 247 247 247 246 244 244 244 244 245 246 246 246 245 246 247 247
276 277 277 277 276 276 276 275 272 271 269 267 264 263 261 259 257 256 255 254 253 252 251 251 251 250 248 248 247 248 246 245 243 244 245 245 245 246 246 245 245 246 247
276 276 277 278 277 276 275 275 273 272 270 268 265 262 261 259 257 256 255 253 253 252 252 251 251 250 249 248 249 248 246 246 245 245 246 246 245 246 246 246 245 246 247
275 276 276 278 277 276 275 274 273 272 270 268 266 264 262 259 257 255 255 254 252 251 251 251 251 249 248 248 248 248 247 246 245 246 246 246 246 246 245 245 245 246 247
275 275 275 277 277 276 275 275 274 272 271 269 267 265 262 259 257 255 253 252 252 251 251 251 251 250 250 248 248 248 248 248 247 248 247 247 247 246 245 245 246 247 248
276 276 277 277 277 277 276 275 274 273 272 270 268 265 263 260 256 254 253 252 252 251 251 250 250 250 250 248 248 248 249 249 249 249 247 247 247 246 246 246 247 248 249
275 275 276 276 277 277 276 275 273 273 272 270 268 266 264 261 257 254 253 253 252 251 250 249 250 250 250 249 248 248 248 249 249 249 249 249 248 247 247 247 249 249 250
275 276 276 277 276 276 276 275 273 272 270 269 267 265 263 261 259 256 254 253 252 251 251 250 249 249 249 249 249 248 247 248 249 249 250 250 249 248 248 248 249 250 250
275 276 276 277 277 276 276 275 274 273 270 268 265 263 261 260 260 258 255 253 252 251 251 250 249 248 249 248 248 247 247 248 248 249 249 250 250 249 249 248 249 251 251
276 276 276 276 276 276 276 275 273 272 270 267 265 263 261 259 258 258 256 254 253 251 250 249 249 248 248 248 248 248 249 248 248 248 248 249 249 250 250 250 250 251 252
277 277 276 276 276 276 275 273 272 270 268 266 264 262 260 259 257 256 255 253 252 252 251 250 249 248 248 248 249 249 249 249 249 248 248 249 249 250 250 251 251 252 253
277 277 276 276 276 275 275 272 270 268 267 265 264 261 260 259 257 256 255 255 253 252 250 249 249 249 249 249 249 249 249 249 249 248 248 248 248 249 250 251 252 253 253
280 279 278 278 277 275 274 272 270 268 266 265 263 262 260 258 256 256 257 256 255 253 251 250 249 250 250 250 249 250 249 248 248 248 247 247 248 249 249 250 251 252 253
283 282 281 279 277 276 274 272 270 268 265 265 264 261 260 258 257 257 257 257 255 254 252 250 250 250 250 250 250 250 249 248 247 247 246 246 247 248 249 249 250 251 253
284 283 282 280 278 276 274 272 270 268 266 266 265 263 260 258 257 257 257 256 255 254 253 251 251 250 250 249 250 250 249 248 247 246 246 246 246 247 248 249 250 251 253
285 285 283 282 279 277 275 273 270 268 266 265 265 264 262 261 259 258 257 257 256 255 253 252 251 250 250 250 250 250 249 248 247 247 247 247 247 247 248 249 250 252 253
285 285 284 283 281 278 275 273 270 269 266 264 264 264 263 261 259 258 257 255 255 254 254 253 252 251 250 250 250 249 248 248 247 247 247 247 248 248 248 249 250 251 253
Height
5837 5837 5837 5837 5837 5837 5837 5837 5837 5838 5838 5838 5839 5839 5840 5840 5841 5841 5842 5842 5843 5844 5844 5845 5846 5847 5847 5848 5848 5849 5850 5850 5851 5851 5852 5853 5853 5854 5854 5855 5856 5856 5857
5835 5834 5835 5834 5835 5835 5835 5835 5835 5835 5836 5836 5836 5837 5837 5838 5839 5839 5840 5840 5841 5842 5843 5843 5844 5845 5846 5846 5847 5848 5848 5849 5850 5850 5851 5852 5853 5853 5854 5854 5855 5856 5856
5832 5832 5832 5832 5832 5832 5832 5832 5833 5833 5833 5834 5834 5834 5835 5835 5836 5837 5837 5838 5839 5840 5840 5841 5842 5843 5844 5845 5845 5846 5847 5848 5849 5849 5850 5851 5852 5852 5853 5854 5854 5855 5855
5829 5829 5829 5829 5829 5830 5830 5830 5830 5830 5830 5831 5831 5832 5832 5833 5833 5834 5835 5835 5836 5837 5838 5839 5840 5841 5842 5843 5844 5844 5845 5846 5847 5848 5849 5849 5850 5851 5852 5852 5853 5854 5854
5826 5827 5826 5826 5826 5827 5827 5827 5827 5827 5827 5827 5828 5828 5829 5830 5830 5831 5832 5833 5833 5834 5835 5836 5837 5838 5839 5840 5841 5842 5843 5844 5845 5846 5847 5848 5848 5849 5850 5851 5852 5853 5853
5823 5823 5823 5823 5823 5823 5823 5823 5823 5823 5824 5824 5824 5825 5826 5827 5827 5828 5829 5830 5830 5831 5832 5833 5834 5835 5836 5838 5839 5840 5841 5842 5843 5844 5845 5846 5847 5847 5848 5849 5850 5851 5851
5820 5820 5819 5819 5819 5819 5819 5819 5819 5819 5820 5820 5821 5821 5822 5823 5824 5825 5826 5826 5827 5828 5829 5830 5831 5832 5833 5834 5835 5837 5838 5839 5840 5841 5842 5843 5844 5845 5846 5847 5848 5849 5850
5816 5816 5816 5815 5815 5815 5815 5815 5815 5815 5815 5816 5816 5817 5818 5819 5820 5821 5822 5823 5824 5825 5826 5826 5828 5829 5830 5831 5832 5833 5834 5836 5837 5838 5840 5841 5842 5843 5844 5845 5846 5847 5847
5812 5812 5811 5811 5811 5811 5811 5810 5810 5810 5811 5811 5812 5812 5813 5814 5815 5817 5818 5819 5820 5821 5822 5823 5824 5825 5826 5827 5829 5830 5831 5833 5834 5835 5837 5838 5839 5840 5841 5842 5843 5844 5845
5807 5807 5806 5806 5806 5806 5806 5806 5806 5806 5806 5806 5807 5807 5808 5809 5810 5812 5813 5814 5815 5816 5817 5818 5820 5821 5822 5823 5825 5826 5827 5829 5830 5832 5833 5834 5835 5837 5838 5839 5840 5841 5842
5802 5802 5801 5801 5801 5801 5800 5800 5800 5800 5801 5801 5801 5802 5803 5804 5805 5806 5808 5809 5810 5811 5813 5814 5815 5816 5818 5819 5820 5822 5823 5825 5826 5828 5829 5831 5832 5833 5834 5836 5837 5838 5839
5797 5796 5796 5795 5795 5795 5795 5794 5794 5794 5794 5795 5795 5796 5797 5797 5799 5800 5801 5803 5805 5806 5807 5809 5810 5812 5813 5814 5816 5817 5819 5820 5822 5824 5825 5826 5828 5829 5830 5832 5833 5834 5836
5791 5791 5790 5789 5789 5788 5788 5788 5788 5788 5788 5788 5788 5789 5790 5791 5792 5793 5795 5797 5798 5800 5802 5803 5805 5806 5808 5809 5811 5812 5814 5816 5817 5819 5821 5822 5823 5825 5826 5828 5829 5830 5832
5785 5784 5784 5783 5782 5781 5781 5781 5780 5780 5780 5780 5780 5781 5782 5783 5784 5786 5788 5790 5792 5794 5795 5797 5799 5801 5802 5804 5806 5807 5809 5811 5812 5814 5816 5817 5819 5820 5822 5823 5825 5826 5828
5777 5777 5776 5776 5775 5774 5773 5773 5772 5772 5772 5772 5772 5773 5773 5774 5776 5778 5780 5782 5784 5786 5788 5790 5792 5794 5796 5798 5800 5801 5803 5805 5807 5808 5810 5812 5813 5815 5817 5818 5820 5821 5823
5769 5769 5768 5767 5767 5766 5765 5764 5764 5764 5763 5763 5764 5764 5765 5766 5767 5769 5771 5774 5776 5778 5780 5783 5785 5787 5789 5791 5793 5795 5797 5799 5801 5803 5804 5806 5808 5810 5811 5813 5815 5816 5818
5761 5760 5759 5758 5758 5757 5756 5755 5754 5754 5754 5754 5755 5755 5756 5757 5758 5760 5762 5765 5767 5769 5772 5774 5777 5779 5782 5784 5786 5788 5790 5792 5794 5796 5798 5800 5802 5804 5806 5808 5809 5811 5812
5751 5750 5749 5748 5747 5746 5746 5745 5744 5744 5744 5744 5745 5745 5746 5748 5749 5751 5753 5755 5757 5760 5763 5765 5768 5771 5773 5776 5778 5780 5783 5785 5787 5790 5792 5793 5796 5798 5800 5801 5803 5805 5807
5741 5740 5739 5738 5737 5736 5735 5734 5733 5733 5733 5734 5734 5735 5736 5737 5739 5741 5743 5745 5747 5750 5753 5755 5758 5761 5764 5767 5769 5772 5775 5778 5780 5782 5784 5786 5788 5791 5793 5795 5797 5799 5800
5730 5729 5728 5727 5725 5724 5723 5722 5722 5722 5722 5722 5722 5723 5725 5726 5728 5730 5732 5734 5737 5740 5742 5745 5748 5751 5754 5757 5760 5763 5766 5769 5771 5774 5776 5778 5781 5783 5785 5788 5789 5791 5793
5719 5718 5716 5715 5713 5712 5711 5710 5710 5710 5710 5710 5710 5711 5713 5715 5717 5718 5721 5723 5725 5728 5731 5734 5737 5740 5743 5746 5749 5753 5756 5759 5762 5765 5767 5770 5772 5775 5777 5780 5782 5784 5786
5707 5706 5704 5702 5700 5699 5698 5697 5697 5697 5698 5698 5698 5700 5701 5703 5705 5707 5709 5711 5713 5716 5719 5722 5725 5728 5731 5734 5738 5741 5745 5749 5751 5755 5758 5761 5763 5766 5769 5771 5773 5776 5778
5695 5693 5691 5690 5688 5687 5685 5685 5685 5685 5685 5686 5686 5687 5689 5690 5693 5695 5697 5699 5701 5704 5707 5710 5712 5716 5719 5722 5726 5729 5733 5737 5740 5744 5747 5750 5754 5757 5759 5762 5764 5767 5769
5683 5681 5679 5677 5676 5674 5673 5672 5672 5672 5673 5673 5674 5675 5676 5678 5680 5682 5684 5686 5689 5691 5694 5697 5700 5703 5706 5710 5713 5717 5721 5725 5729 5733 5736 5739 5743 5746 5749 5752 5755 5758 5760
5672 5669 5667 5665 5663 5661 5660 5659 5659 5659 5660 5661 5661 5663 5664 5666 5667 5669 5671 5673 5676 5678 5681 5684 5687 5690 5694 5697 5701 5704 5708 5712 5716 5721 5725 5729 5732 5736 5739 5742 5745 5748 5750
5659 5657 5654 5652 5650 5648 5647 5646 5646 5646 5647 5648 5649 5650 5651 5653 5654 5656 5658 5660 5662 5665 5668 5671 5674 5677 5680 5684 5687 5691 5695 5699 5703 5708 5712 5716 5720 5724 5728 5731 5734 5737 5740